Regional Weather Roundup
Issued by NWS Burlington, VT

Home | Current Version | Previous Version | Text Only | Print | Product List | Glossary On
Versions: 1 2 3 4 5 6 7 8 9 10 11 12 13 14 15 16 17 18 19 20 21 22 23 24 25 26 27 28 29 30 31 32 33 34 35 36 37 38 39 40 41 42 43 44 45 46 47 48 49 50
000
ASUS41 KBTV 051130
RWRBTV
VERMONT REGIONAL WEATHER ROUNDUP
NATIONAL WEATHER SERVICE BURLINGTON VT
600 AM EST MON DEC 05 2016

NOTE: "FAIR" INDICATES FEW OR NO CLOUDS BELOW 12,000 FEET WITH NO
SIGNIFICANT WEATHER AND/OR OBSTRUCTIONS TO VISIBILITY.

* THESE REPORTS ARE NOT UNDER NWS QUALITY CONTROL AND/OR DO NOT
  REPORT WEATHER SUCH AS PRECIPITATION AND FOG.

VTZ001>019-051200-
_____VERMONT_____


CITY           SKY/WX    TMP DP  RH WIND       PRES   REMARKS
BURLINGTON     LGT SNOW  27  24  89 SE8       30.00F VSB 3/4 WCI  19
MONTPELIER     LGT SNOW  23  20  88 SE7       30.02F VSB 3/4 WCI  15
MORRISVILLE    CLOUDY    22  19  89 S3        30.04R
ST. JOHNSBURY*   N/A     20  17  88 MISG      30.03F
LYNDONVILLE*   FAIR      17  16  94 CALM      30.03R
MIDDLEBURY*    SNOW      27  27 100 S5        29.99F VSB 1/2 WCI  22
RUTLAND*       LGT SNOW  27  25  93 E14       29.98F FOG     WCI  15
SPRINGFIELD    SNOW      24  21  88 CALM      30.06S VSB 1/2
HIGHGATE*      CLOUDY    27  20  77 SE5       29.99F WCI  21
NEWPORT*       FAIR      19  17  93 SW5       30.02R WCI  12
BENNINGTON     LGT SNOW  30  25  81 E7        29.96F WCI  23
SUTTON*          N/A     18 N/A N/A MISG        N/A
MT. MANSFIELD*   N/A     16 N/A N/A SW3G17      N/A

_____LAKE CHAMPLAIN_____


CITY           SKY/WX    TMP DP  RH WIND       PRES   REMARKS
BURTON ISLAND*   N/A     32  25  74 SE13        N/A  WCI  22
COLCHESTER RF*   N/A     32  32 100 S22         N/A  WCI  19
DIAMOND ISL*     N/A     28  28 100 S13         N/A  WCI  18

$$

NYZ007-026>031-035-052-083-087-051200-
_____NORTHERN NEW YORK_____


CITY           SKY/WX    TMP DP  RH WIND       PRES   REMARKS
PLATTSBURGH    SNOW      28  26  92 S10       29.99S VSB 1/2 WCI  19
SARANAC LAKE   LGT SNOW  22  19  89 E5        29.85F FOG     WCI  16
MASSENA        SNOW      27  24  89 NE12      29.93F VSB 1/2 WCI  17
OGDENSBURG*    LGT SNOW  28  27  93 E6        29.86F WCI  22
POTSDAM*       LGT SNOW  27  27 100 E5        29.87F WCI  21
WATERTOWN      LGT SNOW  34  30  85 S6        29.82F FOG     WCI  29
FT DRUM        MIX PCPN  28  27  93 SE16      29.79F FOG     WCI  17
ALBANY         LGT SNOW  29  26  89 CALM      29.99F FOG
GLENS FALLS    LGT SNOW  27  23  85 E5        29.99F FOG     WCI  22

$$
NHZ002-005-011-051200-
_____NEW HAMPSHIRE_____


CITY           SKY/WX    TMP DP  RH WIND       PRES   REMARKS
LEBANON        LGT SNOW  25  23  92 CALM      30.05R VSB 3/4
KEENE          LGT SNOW  27  25  93 N3        30.06S FOG
MT WASHINGTON  CLOUDY    16 -11  29 S29         N/A  WCI  -4
PLYMOUTH         N/A     23  20  85 CALM      30.08R
WHITEFIELD     CLOUDY    19  14  81 CALM      30.00F

$$

_____REGIONAL QUEBEC LOCATIONS_____


CITY           SKY/WX    TMP DP  RH WIND       PRES   REMARKS
MONTREAL       LGT SNOW  25  19  80 NE13      29.99F WCI  13
QUEBEC CITY    CLOUDY    12   7  79 N3        30.08F
SHERBROOKE     CLOUDY    16  12  86 E3        30.01F

_____REGIONAL ONTARIO LOCATIONS_____


CITY           SKY/WX    TMP DP  RH WIND       PRES   REMARKS
OTTAWA         LGT SNOW  27  25  93 E14G20    29.88F VSB 5/8 WCI  15

______KEY______
VSB  - VISIBILITY IN MILES
WCI  - WIND CHILL INDEX
HX   - HEAT INDEX
$$
NNNN




USA.gov is the U.S. government's official web portal to all federal, state and local government web resources and services.